Akron, OH

11:14 AM EST on January 23, 2018 (GMT -0500)
Akron Fulton International

Weather History for KAKR - October, 2013

Change the Weather History Date:

Saturday, October 12, 2013

  Actual Average (KCAK) Record (KCAK)
Temperature  
Mean Temperature 62 °F -  
Max Temperature 73 °F 62 °F 86 °F (1928)
Min Temperature 50 °F 44 °F 27 °F (1906)
Degree Days  
Heating Degree Days 4    
Growing Degree Days 12 (Base 50)    
Moisture  
Dew Point 56 °F    
Average Humidity 79    
Maximum Humidity 93    
Minimum Humidity 63    
Precipitation  
Precipitation 0.00 in - - ()
Sea Level Pressure  
Sea Level Pressure 30.10 in    
Wind  
Wind Speed 1 mph (ESE)    
Max Wind Speed 6 mph    
Max Gust Speed -    
Visibility 10 miles    
Events Rain    
Averages and records for this station are not official NWS values.
T = Trace of Precipitation, MM = Missing Value Source: NWS Daily Summary

Daily Weather History Graph

Daily Weather History Graph

Search for Another Location

Airport or City:

Trip Planner

Search our weather history database for the weather conditions in past years. The results will help you decide how hot, cold, wet, or windy it might be!

Date:

Astronomy

Oct. 12, 2013 Rise Set
Actual Time 7:34 AM EDT 6:49 PM EDT
Civil Twilight 7:06 AM EDT 7:17 PM EDT
Nautical Twilight 6:34 AM EDT 7:48 PM EDT
Astronomical Twilight 6:02 AM EDT 8:20 PM EDT
Moon 3:00 PM EDT (10/12) 12:33 AM EDT (10/12)
Length of Visible Light 12h 10m
Length of Day
11h 15m
First Quarter, 58% of the Moon is Illuminated
Oct 12
First Quarter
Oct 18
Full
Oct 26
Last Quarter
Nov 3
New
Nov 10
First Quarter

Hourly Weather History & Observations

Time (EDT) Temp. Dew Point Humidity Pressure Visibility Wind Dir Wind Speed Gust Speed Precip Events Conditions
12:54 AM 53.1 °F 48.9 °F 86% 30.09 in 10.0 mi Calm Calm - N/A   Clear
1:54 AM 52.0 °F 48.9 °F 89% 30.09 in 10.0 mi Calm Calm - N/A   Clear
2:54 AM 52.0 °F 48.9 °F 89% 30.07 in 10.0 mi Calm Calm - N/A   Clear
3:54 AM 52.0 °F 48.0 °F 86% 30.08 in 10.0 mi Calm Calm - N/A   Clear
4:54 AM 51.1 °F 48.0 °F 89% 30.09 in 10.0 mi Calm Calm - N/A   Clear
5:54 AM 50.0 °F 46.9 °F 89% 30.10 in 10.0 mi Calm Calm - N/A   Clear
6:54 AM 51.1 °F 48.0 °F 89% 30.12 in 10.0 mi Calm Calm - N/A   Clear
7:54 AM 53.1 °F 45.0 °F 74% 30.12 in 10.0 mi East 3.5 mph - N/A   Clear
8:54 AM 55.0 °F 45.0 °F 69% 30.13 in 10.0 mi Calm Calm - N/A   Clear
9:54 AM 63.0 °F 50.0 °F 63% 30.12 in 10.0 mi East 5.8 mph - N/A   Overcast
10:54 AM 64.9 °F 53.1 °F 65% 30.12 in 10.0 mi East 4.6 mph - N/A   Clear
11:54 AM 66.9 °F 57.0 °F 70% 30.11 in 10.0 mi South 4.6 mph - N/A   Overcast
12:54 PM 71.1 °F 59.0 °F 66% 30.10 in 10.0 mi SE 3.5 mph - N/A   Overcast
1:26 PM 71.6 °F 60.8 °F 69% 30.10 in 10.0 mi ESE 3.5 mph - N/A   Mostly Cloudy
1:54 PM 72.0 °F 60.1 °F 66% 30.08 in 10.0 mi Calm Calm - N/A   Mostly Cloudy
2:23 PM 71.6 °F 60.8 °F 69% 30.09 in 10.0 mi Variable 4.6 mph - N/A   Overcast
2:54 PM 72.0 °F 61.0 °F 68% 30.08 in 10.0 mi East 3.5 mph - N/A   Overcast
3:54 PM 73.0 °F 62.1 °F 68% 30.07 in 10.0 mi Calm Calm - N/A   Overcast
4:54 PM 71.1 °F 63.0 °F 75% 30.08 in 9.0 mi Calm Calm - 0.00 in Rain Light Rain
5:54 PM 69.1 °F 64.9 °F 87% 30.09 in 10.0 mi Calm Calm - 0.00 in   Overcast
6:54 PM 66.9 °F 64.9 °F 93% 30.10 in 10.0 mi Calm Calm - N/A   Mostly Cloudy
7:54 PM 66.9 °F 64.0 °F 90% 30.12 in 10.0 mi Calm Calm - N/A   Mostly Cloudy
8:54 PM 66.9 °F 60.1 °F 79% 30.11 in 10.0 mi Variable 3.5 mph - N/A   Clear
9:54 PM 64.9 °F 59.0 °F 81% 30.10 in 10.0 mi Calm Calm - N/A   Clear
10:54 PM 63.0 °F 60.1 °F 90% 30.13 in 10.0 mi Calm Calm - N/A   Overcast
11:54 PM 62.1 °F 60.1 °F 93% 30.14 in 10.0 mi Calm Calm - N/A   Mostly Cloudy